CW8284 Weather Reports


Display with metric or nautical units.
time (UTC)temp
F
wind
direction
speed
MPH
gust
MPH
rain 1hr
in
rain 24hr
in
rain mn
in
humidity
%
barometer
mb
20260504201114 65 180 3.0 4.0 0.00 0.00 0.00 1013.9
20260504195513 67 180 2.0 3.0 0.00 0.00 0.00 1014.0
20260504195113 67 202 1.0 2.0 0.00 0.00 0.00 1014.0
20260504193813 65 202 3.0 4.0 0.00 0.00 0.00 1014.0
20260504193413 64 225 6.0 7.0 0.00 0.00 0.00 1014.1
20260504193013 63 270 3.0 4.0 0.00 0.00 0.00 1014.3
20260504192913 63 247 3.0 4.0 0.00 0.00 0.00 1014.3
20260504192813 63 0 2.0 3.0 0.00 0.00 0.00 1014.1
20260504192413 62 112 1.0 4.0 0.00 0.00 0.00 1014.3
20260504192013 62 225 5.0 7.0 0.00 0.00 0.00 1014.3
20260504191913 62 202 4.0 6.0 0.00 0.00 0.00 1014.0
20260504191213 62 225 2.0 3.0 0.00 0.00 0.00 1013.9
20260504190213 63 225 3.0 5.0 0.00 0.00 0.00 1014.0
20260504190113 63 202 2.0 4.0 0.00 0.00 0.00 1013.9
20260504185113 65 112 1.0 1.0 0.00 0.00 0.00 1014.4
20260504184114 64 180 1.0 2.0 0.00 0.00 0.00 1014.2
20260504184013 63 180 4.0 9.0 0.00 0.00 0.00 1014.3
20260504183913 63 247 5.0 9.0 0.00 0.00 0.00 1014.0
20260504183813 63 202 3.0 4.0 0.00 0.00 0.00 1014.1
20260504183113 64 225 3.0 6.0 0.00 0.00 0.00 1014.1
20260504181513 64 225 2.0 3.0 0.00 0.00 0.00 1014.3
20260504181413 64 90 1.0 2.0 0.00 0.00 0.00 1014.3
20260504181313 64 112 1.0 1.0 0.00 0.00 0.00 1014.3
20260504180913 64 315 1.0 2.0 0.00 0.00 0.00 1014.3
20260504175613 64 180 1.0 1.0 0.00 0.00 0.00 1014.4
20260504175513 64 157 5.0 7.0 0.00 0.00 0.00 1014.3
20260504175413 64 225 2.0 5.0 0.00 0.00 0.00 1014.3
20260504175313 63 180 2.0 4.0 0.00 0.00 0.00 1014.4
20260504174313 64 90 0.0 0.0 0.00 0.00 0.00 1014.3
20260504173913 64 202 3.0 5.0 0.00 0.00 0.00 1014.3
20260504173813 64 292 0.0 1.0 0.00 0.00 0.00 1014.2
20260504173113 64 180 1.0 2.0 0.00 0.00 0.00 1014.3
20260504172713 63 292 1.0 2.0 0.00 0.00 0.00 1014.4
20260504172313 63 270 2.0 4.0 0.00 0.00 0.00 1014.3
20260504172213 63 315 1.0 2.0 0.00 0.00 0.00 1014.3
20260504171814 62 225 1.0 1.0 0.00 0.00 0.00 1014.3
20260504171713 62 157 1.0 2.0 0.00 0.00 0.00 1014.3
20260504171613 62 225 1.0 2.0 0.00 0.00 0.00 1014.3
20260504171213 62 180 0.0 1.0 0.00 0.00 0.00 1014.3
20260504160413 60 112 2.0 4.0 0.00 0.00 0.00 1014.1
20260504141213 53 90 0.0 0.0 0.00 0.00 0.00 1013.4
20260504140813 53 90 1.0 1.0 0.00 0.00 0.00 1013.5
20260504140713 53 90 0.0 1.0 0.00 0.00 0.00 1013.5
20260504140613 53 112 0.0 0.0 0.00 0.00 0.00 1013.6
20260504140513 53 112 0.0 1.0 0.00 0.00 0.00 1013.4
20260504140113 53 45 1.0 3.0 0.00 0.00 0.00 1013.5
20260504130313 51 45 0.0 0.0 0.00 0.00 0.00 1013.8
20260504130213 51 45 0.0 0.0 0.00 0.00 0.00 1013.6
20260504110713 49 22 1.0 2.0 0.00 0.00 0.00 1012.7
20260504110613 49 0 1.0 2.0 0.00 0.00 0.00 1012.9
20260504110513 49 22 1.0 1.0 0.00 0.00 0.00 1012.7
20260504110114 48 337 1.0 2.0 0.00 0.00 0.00 1012.9
20260504100513 50 22 0.0 1.0 0.00 0.00 0.00 1012.9
20260504100113 50 315 1.0 1.0 0.00 0.00 0.00 1012.8
20260504080513 56 180 0.0 0.0 0.00 0.00 0.00 1014.0
20260504080413 56 202 0.0 0.0 0.00 0.00 0.00 1014.0
20260504080313 56 157 0.0 0.0 0.00 0.00 0.00 1013.9
20260504080213 56 157 0.0 2.0 0.00 0.00 0.00 1014.0
20260504080113 56 247 0.0 0.0 0.00 0.00 0.00 1014.1
20260504070113 56 202 1.0 2.0 0.00 0.00 0.00 1013.7
20260504045613 57 157 1.0 2.0 0.00 0.00 0.00 1013.5
20260504045513 57 202 2.0 3.0 0.00 0.00 0.00 1013.5
20260504045413 57 180 1.0 2.0 0.00 0.00 0.00 1013.4
20260504045013 57 202 1.0 2.0 0.00 0.00 0.00 1013.5
20260504044314 57 180 0.0 1.0 0.00 0.00 0.00 1013.6
20260504044213 57 157 1.0 2.0 0.00 0.00 0.00 1013.4
20260504044113 57 225 2.0 4.0 0.00 0.00 0.00 1013.6
20260504043713 57 202 2.0 4.0 0.00 0.00 0.00 1013.6
20260504043613 57 180 3.0 6.0 0.00 0.00 0.00 1013.6
20260504043213 57 202 3.0 4.0 0.00 0.00 0.00 1013.6
20260504043113 58 202 4.0 5.0 0.00 0.00 0.00 1013.6
20260504042713 58 157 1.0 3.0 0.00 0.00 0.00 1013.4
20260504042613 58 247 3.0 5.0 0.00 0.00 0.00 1013.6
20260504042513 58 202 2.0 4.0 0.00 0.00 0.00 1013.6
20260504042115 58 202 2.0 2.0 0.00 0.00 0.00 1013.6
20260504042015 58 225 2.0 4.0 0.00 0.00 0.00 1013.4
20260504041913 58 202 3.0 4.0 0.00 0.00 0.00 1013.3
20260504041813 58 202 1.0 3.0 0.00 0.00 0.00 1013.4
20260504040213 58 225 2.0 3.0 0.00 0.00 0.00 1013.1
20260504035813 58 202 2.0 4.0 0.00 0.00 0.00 1013.1
20260504035713 58 202 2.0 3.0 0.00 0.00 0.00 1013.1
20260504035613 58 225 2.0 4.0 0.00 0.00 0.00 1013.1
20260504035513 58 247 2.0 2.0 0.00 0.00 0.00 1013.1
20260504035113 58 202 2.0 4.0 0.00 0.00 0.00 1013.1
20260504034113 58 225 4.0 5.0 0.00 0.00 0.00 1013.4
20260504034013 58 225 3.0 4.0 0.00 0.00 0.00 1013.3
20260504033614 58 225 2.0 4.0 0.00 0.00 0.00 1013.0
20260504032613 58 225 1.0 3.0 0.00 0.00 0.00 1012.9
20260504032213 58 225 2.0 3.0 0.00 0.00 0.00 1012.8
20260504031813 58 202 4.0 5.0 0.00 0.00 0.00 1012.7
20260504031713 58 225 1.0 2.0 0.00 0.00 0.00 1012.8
20260504031313 58 202 3.0 3.0 0.00 0.00 0.00 1012.7
20260504030913 58 225 3.0 5.0 0.00 0.00 0.00 1012.6
20260504024713 59 202 5.0 7.0 0.00 0.00 0.00 1012.4
20260504024613 59 225 4.0 6.0 0.00 0.00 0.00 1012.4
20260504023913 59 225 4.0 7.0 0.00 0.00 0.00 1012.4
20260504023813 59 225 4.0 4.0 0.00 0.00 0.00 1012.4
20260504023713 59 247 4.0 6.0 0.00 0.00 0.00 1012.4
20260504023313 60 225 5.0 8.0 0.00 0.00 0.00 1012.1
20260504022313 60 225 5.0 6.0 0.00 0.00 0.00 1011.9
20260504022214 60 225 4.0 6.0 0.00 0.00 0.00 1011.9
20260504022113 60 225 4.0 6.0 0.00 0.00 0.00 1011.9
20260504021713 60 180 5.0 7.0 0.00 0.00 0.00 1011.9
20260504021613 60 202 3.0 5.0 0.00 0.00 0.00 1011.8
20260504021213 60 202 4.0 5.0 0.00 0.00 0.00 1012.0
20260504021113 60 225 4.0 5.0 0.00 0.00 0.00 1012.0
20260504021013 61 180 3.0 5.0 0.00 0.00 0.00 1011.9
20260504020913 61 225 5.0 7.0 0.00 0.00 0.00 1011.9
20260504020813 61 225 6.0 8.0 0.00 0.00 0.00 1011.7
20260504020713 61 225 4.0 6.0 0.00 0.00 0.00 1011.7
20260504020613 61 202 1.0 3.0 0.00 0.00 0.00 1011.6
20260504020514 61 202 2.0 4.0 0.00 0.00 0.00 1011.7
20260504015813 61 225 5.0 7.0 0.00 0.00 0.00 1011.8
20260504015713 61 225 4.0 6.0 0.00 0.00 0.00 1011.7
20260504015613 61 225 4.0 6.0 0.00 0.00 0.00 1011.6
20260504014913 61 225 3.0 6.0 0.00 0.00 0.00 1011.5
20260504014813 61 202 2.0 5.0 0.00 0.00 0.00 1011.7
20260504014713 61 202 3.0 4.0 0.00 0.00 0.00 1011.0
20260504014313 61 225 4.0 6.0 0.00 0.00 0.00 1011.4
20260504013913 61 225 4.0 5.0 0.00 0.00 0.00 1011.1
20260504013213 62 202 2.0 4.0 0.00 0.00 0.00 1011.4
20260504013113 62 225 3.0 4.0 0.00 0.00 0.00 1011.4
20260504012713 62 202 2.0 4.0 0.00 0.00 0.00 1011.4
20260504012013 62 270 2.0 3.0 0.00 0.00 0.00 1011.1
20260504011913 62 315 3.0 4.0 0.00 0.00 0.00 1011.3
20260504011813 62 180 2.0 4.0 0.00 0.00 0.00 1011.2
20260504011413 62 225 3.0 5.0 0.00 0.00 0.00 1011.3
20260504011313 62 225 2.0 4.0 0.00 0.00 0.00 1011.4
20260504011213 63 225 3.0 5.0 0.00 0.00 0.00 1011.3
20260504010513 63 225 3.0 4.0 0.00 0.00 0.00 1011.1
20260504010113 63 225 3.0 4.0 0.00 0.00 0.00 1011.4
20260504005113 63 202 3.0 4.0 0.00 0.00 0.00 1011.1
20260504003813 63 180 3.0 5.0 0.00 0.00 0.00 1011.2
20260504003713 63 180 3.0 5.0 0.00 0.00 0.00 1011.2
20260504003613 63 202 6.0 8.0 0.00 0.00 0.00 1011.2
20260504003513 63 247 5.0 8.0 0.00 0.00 0.00 1010.9
20260504002213 64 202 3.0 5.0 0.00 0.00 0.00 1011.0
20260504001813 64 180 2.0 5.0 0.00 0.00 0.00 1010.9
20260504001113 64 247 1.0 2.0 0.00 0.00 0.00 1011.0
20260504001013 64 225 2.0 4.0 0.00 0.00 0.00 1011.1
20260504000913 64 225 2.0 3.0 0.00 0.00 0.00 1011.2
20260504000513 64 135 1.0 1.0 0.00 0.00 0.00 1011.0
20260504000113 64 247 4.0 6.0 0.00 0.00 0.00 1011.2
20260503235413 64 225 3.0 4.0 0.00 0.00 0.00 1011.2
20260503234713 63 225 3.0 4.0 0.00 0.00 0.00 1011.0
20260503233713 63 157 1.0 2.0 0.00 0.00 0.00 1011.1
20260503233313 63 225 3.0 4.0 0.00 0.00 0.00 1011.1
20260503233213 63 202 3.0 4.0 0.00 0.00 0.00 1011.1
20260503232513 63 247 4.0 6.0 0.00 0.00 0.00 1011.1
20260503232413 63 225 4.0 6.0 0.00 0.00 0.00 1011.1
20260503231713 63 202 3.0 4.0 0.00 0.00 0.00 1011.3
20260503231613 63 225 3.0 5.0 0.00 0.00 0.00 1011.2
20260503230613 63 225 4.0 8.0 0.00 0.00 0.00 1011.2
20260503225613 64 225 5.0 6.0 0.00 0.00 0.00 1011.2
20260503225213 64 180 3.0 6.0 0.00 0.00 0.00 1011.2
20260503225113 64 202 3.0 5.0 0.00 0.00 0.00 1011.3
20260503225013 64 202 4.0 5.0 0.00 0.00 0.00 1011.4
20260503224313 64 225 5.0 7.0 0.00 0.00 0.00 1011.3
20260503223914 65 225 4.0 6.0 0.00 0.00 0.00 1011.6
20260503223513 65 270 3.0 5.0 0.00 0.00 0.00 1011.2
20260503222813 64 225 3.0 8.0 0.00 0.00 0.00 1011.3
20260503222713 64 202 4.0 5.0 0.00 0.00 0.00 1011.2
20260503222613 64 270 4.0 5.0 0.00 0.00 0.00 1011.8
20260503221913 65 247 5.0 7.0 0.00 0.00 0.00 1011.4
20260503221813 65 202 4.0 6.0 0.00 0.00 0.00 1011.4
20260503221113 66 225 2.0 5.0 0.00 0.00 0.00 1011.9
20260503220713 65 247 4.0 5.0 0.00 0.00 0.00 1011.4
20260503220313 65 225 3.0 5.0 0.00 0.00 0.00 1011.8
20260503215913 66 202 3.0 5.0 0.00 0.00 0.00 1011.9
20260503215813 66 247 3.0 4.0 0.00 0.00 0.00 1012.0
20260503215414 66 202 1.0 2.0 0.00 0.00 0.00 1011.9
20260503215313 66 180 2.0 5.0 0.00 0.00 0.00 1012.0
20260503215213 66 112 3.0 5.0 0.00 0.00 0.00 1011.5
20260503214813 67 180 2.0 4.0 0.00 0.00 0.00 1011.6
20260503214413 67 270 1.0 2.0 0.00 0.00 0.00 1012.1
20260503213713 66 292 2.0 3.0 0.00 0.00 0.00 1012.0
20260503213613 66 292 2.0 3.0 0.00 0.00 0.00 1012.1
20260503213514 66 225 3.0 4.0 0.00 0.00 0.00 1012.0
20260503212813 67 157 1.0 2.0 0.00 0.00 0.00 1012.2
20260503211813 66 45 0.0 2.0 0.00 0.00 0.00 1012.2
20260503211713 66 315 2.0 3.0 0.00 0.00 0.00 1012.2
20260503211313 66 22 1.0 2.0 0.00 0.00 0.00 1012.2
20260503211213 66 22 0.0 1.0 0.00 0.00 0.00 1012.3
20260503211113 66 180 1.0 2.0 0.00 0.00 0.00 1012.4
20260503210713 66 247 1.0 2.0 0.00 0.00 0.00 1012.4
20260503210013 66 247 2.0 4.0 0.00 0.00 0.00 1012.3
20260503204713 63 202 1.0 2.0 0.00 0.00 0.00 1012.3
20260503204613 63 225 1.0 2.0 0.00 0.00 0.00 1012.3
20260503204514 63 225 2.0 3.0 0.00 0.00 0.00 1012.3
20260503203513 64 315 2.0 3.0 0.00 0.00 0.00 1012.2
20260503202813 64 225 0.0 0.0 0.00 0.00 0.00 1012.3
20260503201513 63 202 1.0 2.0 0.00 0.00 0.00 1012.3
20260503201413 63 315 1.0 3.0 0.00 0.00 0.00 1012.5
20260503201313 63 337 1.0 1.0 0.00 0.00 0.00 1012.4
20260503201214 63 337 1.0 2.0 0.00 0.00 0.00 1012.4